LVFVY SADL-SADF

Flight info

Callsign LVFVY
Flight time 0h 17m
Altitude 4000
Route EZE DCT PAL
Aircraft C510/L-SDFGRWY/LB1

Departure

Time 2026-04-20 22:41
Airport La Plata Airport (SADL)

Arrival

Time 2026-04-20 22:59
Airport San Fernando Airport (SADF)
Time Latitude Longitude Altitude Speed Heading
2026-04-20 22:31 -34.96271 -57.88756 76 ft 0 kts 220°
2026-04-20 22:32 -34.96272 -57.88756 76 ft 0 kts 220°
2026-04-20 22:37 -34.96273 -57.88757 76 ft 0 kts 220°
2026-04-20 22:37 -34.96275 -57.88760 76 ft 0 kts 220°
2026-04-20 22:37 -34.96281 -57.88769 76 ft 2 kts 265°
2026-04-20 22:38 -34.96275 -57.88779 76 ft 0 kts 316°
2026-04-20 22:38 -34.96273 -57.88781 76 ft 0 kts 317°
2026-04-20 22:38 -34.96270 -57.88784 76 ft 0 kts 318°
2026-04-20 22:38 -34.96268 -57.88787 76 ft 0 kts 319°
2026-04-20 22:39 -34.96265 -57.88789 76 ft 0 kts 319°
2026-04-20 22:39 -34.96250 -57.88817 76 ft 8 kts 297°
2026-04-20 22:39 -34.96231 -57.88871 76 ft 5 kts 296°
2026-04-20 22:39 -34.96205 -57.88927 76 ft 6 kts 285°
2026-04-20 22:40 -34.96198 -57.88959 76 ft 3 kts 283°
2026-04-20 22:40 -34.96182 -57.89069 76 ft 23 kts 261°
2026-04-20 22:40 -34.96330 -57.89118 76 ft 18 kts 194°
2026-04-20 22:40 -34.96733 -57.89248 76 ft 106 kts 193°
2026-04-20 22:41 -34.97683 -57.89654 520 ft 175 kts 198°
2026-04-20 22:41 -34.99065 -57.90111 1076 ft 227 kts 193°
2026-04-20 22:41 -35.00642 -57.90594 1760 ft 237 kts 192°
2026-04-20 22:41 -35.02276 -57.91086 2426 ft 243 kts 192°
2026-04-20 22:42 -35.03947 -57.91585 3089 ft 247 kts 192°
2026-04-20 22:42 -35.05613 -57.92077 3738 ft 250 kts 192°
2026-04-20 22:42 -35.07374 -57.92594 4013 ft 256 kts 193°
2026-04-20 22:42 -35.09133 -57.93109 4000 ft 262 kts 193°
2026-04-20 22:43 -35.10849 -57.93882 3991 ft 267 kts 214°
2026-04-20 22:43 -35.11939 -57.95776 4000 ft 272 kts 251°
2026-04-20 22:43 -35.11929 -57.98111 3991 ft 276 kts 283°
2026-04-20 22:43 -35.11380 -58.00393 4004 ft 275 kts 284°
2026-04-20 22:44 -35.10832 -58.02679 4000 ft 275 kts 284°
2026-04-20 22:44 -35.10286 -58.04946 4000 ft 274 kts 284°
2026-04-20 22:44 -35.09739 -58.07217 4000 ft 274 kts 285°
2026-04-20 22:44 -35.09175 -58.09549 4001 ft 274 kts 284°
2026-04-20 22:45 -35.08633 -58.11793 4005 ft 274 kts 284°
2026-04-20 22:45 -35.08089 -58.14040 4589 ft 269 kts 285°
2026-04-20 22:45 -35.07550 -58.16259 5382 ft 267 kts 285°
2026-04-20 22:45 -35.06650 -58.18273 5979 ft 275 kts 312°
2026-04-20 22:46 -35.05171 -58.19905 6038 ft 281 kts 315°
2026-04-20 22:46 -35.03775 -58.21559 6022 ft 274 kts 314°
2026-04-20 22:46 -35.02405 -58.23216 6026 ft 269 kts 314°
2026-04-20 22:46 -35.01059 -58.24853 6031 ft 268 kts 314°
2026-04-20 22:47 -34.99707 -58.26500 6035 ft 267 kts 314°
2026-04-20 22:47 -34.98364 -58.28137 6038 ft 266 kts 313°
2026-04-20 22:47 -34.97019 -58.29816 6042 ft 266 kts 312°
2026-04-20 22:47 -34.95693 -58.31560 6052 ft 281 kts 310°
2026-04-20 22:48 -34.94325 -58.33460 6051 ft 287 kts 309°
2026-04-20 22:48 -34.93040 -58.35344 6048 ft 286 kts 307°
2026-04-20 22:48 -34.92088 -58.36805 6048 ft 286 kts 306°
2026-04-20 22:48 -34.90953 -58.38609 6048 ft 286 kts 306°
2026-04-20 22:49 -34.89719 -58.40397 6034 ft 288 kts 318°
2026-04-20 22:49 -34.88258 -58.41813 6048 ft 287 kts 318°
2026-04-20 22:49 -34.86729 -58.43478 6047 ft 286 kts 315°
2026-04-20 22:49 -34.85268 -58.45166 6046 ft 286 kts 314°
2026-04-20 22:50 -34.83778 -58.46913 6046 ft 286 kts 314°
2026-04-20 22:50 -34.82317 -58.48627 6046 ft 286 kts 314°
2026-04-20 22:50 -34.80833 -58.50369 6046 ft 286 kts 314°
2026-04-20 22:50 -34.79358 -58.52101 6046 ft 286 kts 314°
2026-04-20 22:51 -34.77968 -58.53733 6037 ft 287 kts 314°
2026-04-20 22:51 -34.76633 -58.55300 6037 ft 287 kts 314°
2026-04-20 22:51 -34.75194 -58.56990 6036 ft 286 kts 314°
2026-04-20 22:51 -34.73728 -58.58705 6037 ft 286 kts 315°
2026-04-20 22:52 -34.72269 -58.60415 5988 ft 287 kts 314°
2026-04-20 22:52 -34.70838 -58.62089 5673 ft 277 kts 314°
2026-04-20 22:52 -34.69461 -58.63697 5383 ft 270 kts 314°
2026-04-20 22:52 -34.68100 -58.65287 5101 ft 265 kts 315°
2026-04-20 22:53 -34.66755 -58.66858 4820 ft 263 kts 315°
2026-04-20 22:53 -34.65420 -58.68425 4540 ft 252 kts 315°
2026-04-20 22:53 -34.64172 -58.69887 4292 ft 237 kts 315°
2026-04-20 22:53 -34.62982 -58.71278 4061 ft 230 kts 315°
2026-04-20 22:54 -34.61803 -58.72664 3829 ft 226 kts 315°
2026-04-20 22:54 -34.60661 -58.74012 3597 ft 224 kts 315°
2026-04-20 22:54 -34.59292 -58.74901 3348 ft 222 kts 353°
2026-04-20 22:54 -34.57746 -58.74829 3081 ft 219 kts 19°
2026-04-20 22:55 -34.56578 -58.73705 3034 ft 202 kts 58°
2026-04-20 22:55 -34.55778 -58.72334 3036 ft 195 kts 58°
2026-04-20 22:55 -34.54966 -58.70950 2846 ft 199 kts 58°
2026-04-20 22:55 -34.54054 -58.69620 2643 ft 204 kts 45°
2026-04-20 22:56 -34.52999 -58.68422 2386 ft 207 kts 49°
2026-04-20 22:56 -34.52041 -58.67103 2230 ft 201 kts 59°
2026-04-20 22:56 -34.51159 -58.65814 2100 ft 183 kts 56°
2026-04-20 22:56 -34.50245 -58.64704 1721 ft 187 kts 48°
2026-04-20 22:57 -34.49247 -58.63631 1112 ft 183 kts 45°
2026-04-20 22:57 -34.48350 -58.62635 889 ft 168 kts 49°
2026-04-20 22:57 -34.47560 -58.61662 656 ft 140 kts 51°
2026-04-20 22:57 -34.46972 -58.60935 488 ft 109 kts 51°
2026-04-20 22:58 -34.46454 -58.60299 249 ft 102 kts 53°
2026-04-20 22:58 -34.45949 -58.59690 44 ft 99 kts 55°
2026-04-20 22:58 -34.45511 -58.59158 17 ft 79 kts 54°
2026-04-20 22:58 -34.45166 -58.58743 12 ft 53 kts 43°
2026-04-20 22:59 -34.45001 -58.58556 12 ft 22 kts 45°
2026-04-20 22:59 -34.44907 -58.58445 12 ft 20 kts 46°
2026-04-20 22:59 -34.44855 -58.58330 12 ft 10 kts 116°
2026-04-20 22:59 -34.44902 -58.58280 12 ft 11 kts 149°
2026-04-20 23:00 -34.44997 -58.58211 12 ft 19 kts 148°
2026-04-20 23:00 -34.45130 -58.58112 12 ft 21 kts 148°
2026-04-20 23:00 -34.45226 -58.58039 12 ft 12 kts 146°
2026-04-20 23:00 -34.45295 -58.57995 12 ft 9 kts 152°
2026-04-20 23:01 -34.45345 -58.58002 12 ft 7 kts 249°
2026-04-20 23:01 -34.45373 -58.58077 12 ft 11 kts 242°
2026-04-20 23:01 -34.45414 -58.58173 12 ft 14 kts 243°
2026-04-20 23:01 -34.45458 -58.58278 12 ft 9 kts 240°
2026-04-20 23:02 -34.45493 -58.58355 12 ft 11 kts 236°
2026-04-20 23:02 -34.45516 -58.58411 12 ft 5 kts 230°
2026-04-20 23:02 -34.45559 -58.58403 12 ft 3 kts 196°
2026-04-20 23:02 -34.45560 -58.58403 12 ft 0 kts 195°